[ hide orbit diagram ]
For accurate long-term ephemerides, please instead use our Horizons system.This orbit viewer was implemented using two-body methods, and hence should not be used for determining accurate long-term trajectories (over several years or decades) or planetary encounter circumstances.
Orbital Elements at Epoch 2459200.5 (2020-Dec-17.0) TDB
Reference: JPL 28 (heliocentric ecliptic J2000)
Element | Value | Uncertainty (1-sigma) | Units |
e | .180483761835888 | 4.8843e-08 | |
a | 2.382270641342197 | 7.644e-09 | au |
q | 1.952309474281563 | 1.1935e-07 | au |
i | 2.818028667913242 | 4.8112e-06 | deg |
node | 166.5492264845037 | 5.6108e-05 | deg |
peri | 191.0516723029959 | 5.6834e-05 | deg |
M | 12.13035501374268 | 7.9085e-06 | deg |
tp | 2459155.246092441198 (2020-Nov-01.74609244) | 2.9506e-05 | TDB |
period | 1343.028023723287 3.68 | 6.4641e-06 1.77e-08 | d yr |
n | .2680509964356285 | 1.2901e-09 | deg/d |
Q | 2.81223180840283 | 9.0236e-09 | au |
|
| | Orbit Determination Parameters
Additional Information
|
[ show covariance matrix ]
Physical Parameter Table
Parameter |
Symbol |
Value |
Units |
Sigma |
Reference |
Notes |
absolute magnitude |
H |
15.34 |
|
n/a |
E2021B10 |
|
diameter |
diameter |
4.974 |
km |
1.254 |
urn:nasa:pds:neowise_diameters_albedos::2.0[mainbelt] (http://adsabs.harvard.edu/abs/2015ApJ...814..117N) |
|
geometric albedo |
albedo |
0.059 |
|
0.035 |
urn:nasa:pds:neowise_diameters_albedos::2.0[mainbelt] (http://adsabs.harvard.edu/abs/2015ApJ...814..117N) |
|
|
26246 Mikelake | Discovered 1998 Aug. 17 by the Lincoln Laboratory Near-Earth Asteroid Research Team at Socorro. |
Michael Lake mentored a finalist in the 2010 Intel Science Talent Search (STS), a science competition for high school seniors. He teaches at the Half Hollow Hills High School West, Dix Hills, New York. |
NOTE: some special characters may not display properly (any characters within {} are an attempt to place the proper accent above a character) |
Reference: 20100228/MPCPages.arc | Last Updated: 2010-10-29 |
|
[ show close-approach data ]
Alternate Designations
1998 QN46 = 1976 SW7 = 1980 WC1 = 1987 SW11 |
|
|